Gary Chicago International Airport Gary US
ICAO: KGYY
IATA: GYY
Category: Medium
Scheduled Services: No

Elevation: 591 ft
TransAlt. 18000 ft.

Airport Communications:
CHICAGO APP/DEP:133.1
ATIS:120.625
CTAF:125.6
GND:121.9
KANKAKEE RDO:114.2
TERRE HAUTE RDO:123.65
TWR:125.6

KGYY Zoom In..

If you have problems with the map follow the link
https://www.worldairports.se/pages/airport.php?
ICAO=KGYY

Runways:

(A) RW 02 length 3603 ft width 100 ft
---- / hdg 23

(B) RW 12 length 7003 ft width 150 ft
---- / hdg 126

(C) RW 20 length 3603 ft width 100 ft
---- / hdg 203

(D) RW 30 length 7003 ft width 150 ft
ILS 108.75 / hdg 306

Location; KGYY
Day. 14 / Time. 17.45 Zulu
* Altimeter: 29.70
* Temperature: 03° c. 37.4°f.
* Wind from: 280° Speed 09 kn.
Dewpoint: -01° c.
Visibility: 4 Statute Miles.
Clouds: Overcast 1400 ft.
Conditions: Mist.

KGYY 141745Z 28009KT 4SM BR OVC014 03/M01 A2970


Wind From 280°
Speed 09 kn.

 
 
jpsmedia worldairports.se 2019   terms of use